GFSSGP_850_rhum_102.txt.gz
RH
7 10 13 23 32 36 33 25 17 15 16 14 13 14 15 15 15 25 43 34 27 24 23 19 23 36 61 58 54 49 46 43 42 39 43 42 47 54 60 57 46 36 37 37 51 53 77 78 80
8 16 24 25 38 42 37 24 17 16 14 12 12 13 14 33 28 35 43 41 43 28 20 18 21 24 41 64 59 55 50 47 44 40 41 40 41 44 44 40 31 28 27 29 52 78 79 81 80
12 26 30 33 46 44 36 17 14 13 12 11 11 11 14 30 26 21 31 30 28 21 18 19 21 21 24 46 67 61 57 51 44 43 44 45 43 42 40 31 27 25 28 37 76 66 80 85 79
19 29 30 32 39 34 26 22 17 12 12 11 11 13 16 20 20 23 26 27 24 18 18 20 24 25 24 31 62 72 67 60 55 48 54 54 52 47 34 28 30 34 82 96 79 74 83 84 80
22 25 35 37 36 27 20 16 13 12 12 13 13 15 17 24 25 25 27 28 24 21 23 31 36 34 35 38 54 71 76 71 64 68 70 81 73 70 62 38 34 56 87 95 68 73 76 85 83
24 26 36 39 31 22 18 14 12 13 11 11 14 18 29 24 23 24 26 27 26 26 28 35 46 43 48 57 69 79 85 81 79 79 93 70 69 72 90 63 68 88 69 76 66 72 74 78 74
32 37 37 30 28 23 18 12 15 12 12 12 12 21 42 34 27 23 27 29 30 29 31 33 36 39 55 64 79 88 92 88 87 90 92 67 59 65 92 81 78 62 32 45 57 68 82 68 72
24 32 30 29 27 26 16 11 12 11 12 11 11 21 47 32 33 32 34 34 30 31 40 40 42 42 54 53 78 89 87 92 85 82 80 80 57 76 89 91 80 77 26 38 45 70 74 82 87
23 33 39 29 24 21 15 14 12 10 10 10 9 10 10 23 39 41 37 34 38 46 52 54 58 55 48 54 71 81 90 79 85 86 88 74 63 63 75 82 84 70 36 40 44 68 86 86 74
27 35 30 24 20 20 17 17 14 10 10 10 10 15 14 28 38 37 32 31 41 47 52 66 63 59 59 58 82 83 98 75 94 84 86 74 74 71 65 78 94 81 31 36 52 82 86 70 66
23 29 22 20 18 18 18 17 14 12 14 11 10 19 22 35 38 34 33 36 40 48 58 67 72 69 64 64 82 95 99 100 91 82 81 77 81 81 64 76 94 86 32 36 67 84 68 74 74
30 22 20 19 17 18 19 16 14 13 12 11 11 10 22 31 32 29 39 39 48 55 62 70 76 75 71 74 89 94 100 99 100 97 82 74 76 72 63 61 87 76 31 31 51 75 66 69 70
29 25 21 18 17 16 15 16 15 13 11 12 12 10 16 24 28 35 45 45 53 60 61 68 80 81 79 78 86 89 83 87 93 93 91 84 77 82 96 76 87 53 25 24 30 64 62 66 71
24 24 22 19 18 17 18 18 16 14 13 12 12 12 10 18 28 41 49 48 50 57 66 71 78 83 86 92 89 87 89 95 98 100 94 100 90 95 95 78 86 34 16 17 25 41 63 66 68
24 28 27 24 21 20 16 22 20 13 13 14 13 12 12 12 23 26 30 40 46 54 62 66 76 83 81 90 90 95 95 88 97 100 100 100 98 100 98 76 68 26 16 18 19 43 67 65 69
31 31 36 22 20 18 19 27 20 14 16 15 14 13 13 13 22 27 34 40 51 57 60 67 76 87 94 88 96 94 91 89 91 99 99 100 99 98 93 80 41 20 18 20 20 59 66 63 67
38 41 40 33 22 22 22 27 21 16 16 16 16 14 14 17 26 32 39 38 48 54 58 62 64 73 92 86 95 93 98 99 98 89 88 99 100 87 89 71 38 22 23 21 28 62 58 53 66
44 45 38 37 26 24 27 26 22 17 17 16 14 12 14 23 25 36 39 46 51 56 57 53 56 78 98 99 98 90 96 100 99 85 95 100 87 90 75 66 38 31 31 37 36 42 53 49 66
35 38 41 31 24 24 25 27 26 25 22 19 16 16 16 23 45 47 45 48 51 56 57 38 64 80 97 99 98 94 100 98 100 99 99 99 96 90 82 65 40 42 44 57 67 67 62 64 64
35 39 38 30 25 24 24 24 30 28 24 19 17 15 15 22 57 59 54 54 49 48 48 40 71 90 99 99 99 99 91 99 92 100 93 100 92 93 89 61 49 52 64 75 80 73 69 63 61
22 32 34 34 25 22 25 30 33 27 25 23 20 18 16 24 50 62 58 56 52 50 40 43 67 89 88 87 99 98 100 97 100 100 100 98 86 81 88 64 56 56 63 78 81 75 64 65 66
20 16 19 21 26 33 33 47 33 32 30 25 21 19 19 25 47 59 60 56 53 49 42 47 69 81 84 87 99 98 99 100 98 98 100 99 98 92 83 69 68 69 64 72 80 76 61 62 64
20 18 22 22 26 32 35 50 42 32 34 28 23 20 18 28 41 55 48 49 53 44 45 49 68 81 91 87 99 98 100 99 98 100 97 99 96 85 84 75 83 84 76 78 80 74 66 63 60
16 20 22 24 34 47 49 52 46 42 32 27 21 19 19 24 48 62 61 56 55 45 55 48 67 74 96 86 98 96 99 98 99 100 100 100 96 92 93 91 91 92 91 89 80 73 67 61 60
25 29 48 52 59 56 38 44 35 32 27 26 24 21 18 20 60 67 62 59 59 47 53 52 67 71 98 91 90 99 98 100 99 99 100 100 100 97 88 96 96 88 86 82 88 85 73 61 61
28 32 58 53 75 57 36 52 49 37 33 28 26 22 26 44 73 64 55 57 57 44 44 49 73 83 97 92 90 90 89 98 99 100 99 99 100 100 96 100 97 100 84 92 94 86 75 75 68
24 37 32 44 56 65 55 49 41 41 42 37 26 28 34 60 72 68 57 58 55 42 37 38 59 80 96 97 94 92 92 94 99 99 100 100 100 100 100 97 93 89 88 90 90 85 77 78 70
26 28 37 43 49 56 54 53 57 51 50 41 36 38 41 60 69 67 56 53 51 46 44 40 43 56 93 96 94 94 97 95 96 100 99 99 100 100 100 94 88 84 73 75 78 76 76 81 77
30 30 33 40 51 47 61 52 52 54 51 48 50 44 41 31 55 71 56 51 49 53 50 45 44 46 91 97 94 94 91 92 94 99 100 99 100 98 88 88 85 85 72 66 77 78 72 78 77
47 32 40 59 54 51 59 51 39 45 44 56 55 46 41 32 38 47 65 65 50 52 53 49 46 44 46 95 98 96 93 92 97 93 87 96 97 95 84 81 79 74 69 68 78 79 78 79 78

GFSSGP_850_rhum_105.txt.gz
RH
8 13 14 24 32 39 36 29 20 17 17 14 14 15 16 14 16 23 22 25 21 19 17 17 18 22 55 52 53 53 48 43 41 46 60 74 72 70 70 66 64 54 47 52 60 69 68 72 77
8 13 25 26 40 42 33 28 23 20 15 13 14 15 18 27 28 32 29 30 25 24 24 22 18 21 36 57 53 51 50 49 44 46 35 69 70 71 72 71 62 49 48 63 74 84 77 77 82
10 22 30 37 49 44 32 22 16 14 13 14 13 13 18 24 25 22 22 26 25 25 24 22 22 22 29 57 58 53 51 53 57 55 52 59 75 78 76 66 53 50 55 96 77 87 76 79 81
15 28 30 37 41 38 30 24 21 16 11 13 12 13 16 19 20 18 19 21 20 19 20 20 25 28 36 60 66 60 61 55 56 63 63 60 80 72 58 48 62 80 63 99 87 72 77 84 80
28 27 39 40 39 30 25 20 18 16 13 13 13 15 18 22 21 18 18 20 21 20 20 22 33 38 41 52 72 71 64 61 57 64 76 92 73 65 62 57 56 64 79 97 81 81 85 87 84
24 28 42 45 36 26 22 16 18 18 15 12 15 19 21 21 22 19 21 24 24 23 24 28 36 45 47 50 66 78 78 72 73 72 65 71 71 50 86 74 71 78 87 95 83 86 90 87 84
33 40 40 35 32 26 20 14 15 15 13 12 13 29 32 22 28 25 29 32 30 31 33 31 38 43 45 52 58 76 86 90 94 88 78 71 58 75 70 63 86 87 97 88 86 91 90 86 85
25 36 35 34 31 28 18 15 12 14 12 12 12 37 40 19 29 34 41 44 38 37 37 36 39 38 42 48 65 79 85 83 99 98 89 68 67 67 75 67 62 87 88 87 85 89 93 92 81
28 40 46 34 28 24 17 19 15 15 12 11 11 12 13 18 32 42 42 42 42 37 43 41 44 50 53 49 61 76 87 89 79 82 93 81 72 76 69 56 55 90 84 87 82 90 95 86 78
33 43 37 30 22 22 20 20 18 16 15 12 11 12 13 16 27 32 33 34 37 35 41 48 58 53 53 54 53 59 89 88 86 80 71 79 86 74 74 68 63 90 73 70 66 94 92 87 90
30 35 26 24 21 20 22 22 19 17 19 14 12 11 19 24 27 30 27 30 29 34 42 55 63 56 59 62 56 63 75 94 95 84 76 83 81 81 82 61 66 80 78 63 71 96 94 90 75
32 27 24 23 21 20 22 18 20 17 16 14 13 12 15 30 26 26 28 29 32 39 50 60 67 65 66 68 65 65 85 99 99 94 86 91 82 73 70 67 72 87 79 53 76 91 93 81 69
35 29 24 24 23 22 20 22 20 17 15 14 13 14 14 18 26 24 25 28 34 43 55 62 69 71 72 74 72 78 84 99 100 99 98 96 85 74 69 77 80 97 80 50 74 90 85 72 76
27 28 27 26 26 25 23 21 20 18 17 16 14 13 14 15 19 25 28 32 38 44 54 66 72 76 78 79 80 84 94 98 100 99 100 99 97 82 76 75 77 58 82 47 73 91 72 76 75
27 33 31 30 25 27 21 28 25 17 16 16 15 15 14 14 15 19 21 30 31 39 53 65 70 76 78 84 90 96 97 95 93 98 100 100 90 85 78 70 68 63 72 43 81 88 72 72 73
32 33 41 28 27 22 23 28 22 16 17 17 17 17 17 15 15 15 20 29 30 46 54 67 69 70 83 82 89 94 99 99 98 90 96 100 96 85 88 76 72 72 68 37 63 84 72 73 70
40 44 42 35 26 25 26 30 23 18 20 19 20 20 16 15 15 16 19 27 35 49 59 63 62 68 72 68 92 100 99 99 91 93 100 100 100 100 94 98 86 81 64 30 38 75 72 72 72
42 50 42 40 29 28 32 30 27 21 21 22 22 19 18 15 12 14 22 32 43 53 62 61 61 53 66 74 91 96 98 98 98 100 100 100 99 100 100 94 87 86 30 25 39 67 72 70 71
32 41 44 34 29 28 32 31 27 24 21 29 23 19 19 18 22 24 30 41 51 61 63 59 53 46 69 67 88 93 97 99 100 100 96 95 100 99 100 84 82 72 18 22 33 65 70 73 70
41 42 43 37 30 30 32 31 24 26 28 25 22 22 21 19 23 40 37 49 58 59 61 58 46 54 68 73 86 99 99 100 100 99 99 91 98 99 99 92 88 34 19 24 30 64 67 67 70
25 35 39 41 31 29 30 30 25 24 29 25 24 22 22 20 20 29 44 45 61 61 55 57 43 63 72 74 94 100 100 100 100 100 100 99 99 100 100 93 67 26 23 24 33 65 59 60 74
23 20 22 27 34 41 30 37 32 31 27 27 26 24 23 21 22 28 38 53 58 57 58 56 44 72 69 72 80 80 89 100 98 99 100 100 100 97 99 91 50 26 28 32 32 49 48 48 66
22 19 22 23 27 28 26 52 34 32 36 31 24 23 22 21 19 28 33 43 63 60 56 51 47 79 75 74 76 84 97 98 99 100 100 94 95 95 96 91 46 34 43 54 58 72 64 58 54
20 22 23 26 34 46 31 40 34 37 33 32 27 23 22 21 20 32 40 53 62 67 67 48 51 84 82 82 89 97 93 100 98 100 100 100 100 89 88 94 83 48 58 69 74 78 72 60 57
26 36 49 58 70 50 36 50 33 32 28 31 39 34 28 24 22 36 47 51 63 65 68 49 61 84 79 87 83 98 93 98 100 98 100 98 100 97 87 87 90 70 65 77 81 81 78 66 62
32 35 57 53 65 55 42 56 40 32 35 38 41 41 44 33 31 39 50 51 62 64 60 45 63 82 78 86 80 98 96 96 100 100 100 100 99 90 93 98 88 85 84 81 87 89 86 79 77
26 41 26 38 54 65 57 49 37 41 42 45 49 47 46 72 76 72 84 74 63 61 52 37 65 72 76 80 80 88 93 99 97 95 99 99 100 95 93 91 85 87 87 94 85 79 91 82 83
24 25 35 50 50 57 54 54 49 43 46 47 51 53 57 50 58 73 87 91 77 58 51 44 64 64 69 80 85 86 89 94 100 99 100 100 100 100 100 100 96 94 100 100 99 99 99 97 83
29 33 38 35 52 48 55 55 44 42 53 49 50 60 62 66 75 80 79 81 83 84 63 50 63 71 74 81 88 89 90 95 96 100 99 99 100 97 100 99 96 94 100 99 98 93 98 92 90
48 31 30 54 56 58 56 52 62 53 59 65 69 59 60 58 73 76 75 72 81 91 85 90 82 63 60 74 88 91 93 95 94 97 99 99 100 99 100 100 100 100 98 82 86 88 81 77 87

GFSSGP_850_rhum_111.txt.gz
RH
27 14 16 24 22 27 23 20 20 18 18 17 17 17 16 16 27 19 20 26 20 16 17 17 16 17 23 42 52 60 58 55 60 68 76 71 67 58 56 62 55 54 57 59 66 69 75 74 77
18 15 22 26 24 21 16 22 22 18 16 16 16 17 17 14 18 18 21 21 20 17 17 16 17 18 32 51 60 63 59 56 58 67 78 76 64 54 51 60 61 63 62 63 70 74 76 75 85
13 19 25 25 30 17 16 21 17 17 18 16 15 15 15 16 17 18 17 20 19 17 18 18 19 21 35 58 67 66 62 58 66 76 70 76 72 68 60 57 64 71 60 65 71 73 76 86 87
19 30 27 23 22 26 23 18 18 20 17 15 13 14 14 14 14 14 18 21 18 18 19 22 23 24 34 60 68 68 66 59 71 66 67 76 71 77 79 65 62 75 69 66 66 73 78 81 75
21 29 25 28 24 24 24 24 23 19 18 16 14 15 16 13 14 15 18 20 21 19 21 25 26 27 33 54 68 70 69 62 64 73 72 80 83 73 87 80 77 65 61 68 75 72 74 74 76
27 30 27 18 20 25 22 21 20 18 19 18 16 18 14 12 13 15 17 20 23 24 24 27 32 32 36 48 66 73 72 70 73 74 74 73 62 82 76 66 63 64 65 72 74 80 76 75 78
25 28 24 28 26 24 20 18 18 16 16 16 16 16 14 12 14 15 17 22 26 28 30 30 31 36 41 47 55 73 79 71 73 73 69 74 77 75 57 51 45 40 37 70 78 75 79 84 84
18 25 33 29 18 16 18 17 15 16 15 14 17 19 18 16 16 17 20 25 30 30 33 37 35 34 40 49 52 68 83 82 82 76 72 70 58 60 61 60 56 46 58 69 78 77 76 84 91
27 26 26 18 25 15 19 18 17 18 17 16 15 14 14 14 14 18 23 27 30 32 35 40 41 37 39 39 50 68 86 89 90 85 74 70 68 65 63 59 62 40 55 75 76 75 78 90 96
28 27 22 21 21 18 18 20 19 17 18 17 17 15 16 16 15 19 23 21 26 30 34 38 41 36 34 37 45 77 83 92 100 92 88 78 68 59 64 66 61 71 59 63 62 73 89 97 97
32 26 25 23 22 21 20 20 21 18 18 18 17 16 17 16 15 14 21 23 20 28 35 36 40 38 40 44 46 70 98 93 100 99 98 86 75 76 69 68 73 76 76 79 76 98 96 99 92
34 32 24 20 23 23 22 23 20 21 17 15 17 19 17 16 16 14 14 17 24 28 38 40 41 42 46 52 52 55 99 100 98 99 96 94 89 80 78 86 81 87 90 88 84 99 97 100 92
35 30 28 26 25 25 24 23 23 23 19 18 20 19 17 18 17 15 14 19 22 28 35 42 44 48 51 57 60 64 79 92 98 97 93 96 90 86 83 81 76 86 87 84 76 96 98 100 88
24 28 25 26 24 27 25 22 24 21 20 21 21 19 18 18 16 15 15 15 16 21 25 41 46 49 59 64 66 70 76 82 98 97 96 93 96 84 79 77 86 86 80 85 65 79 97 100 87
31 31 28 29 27 26 29 28 29 24 23 24 22 19 18 17 17 18 17 17 16 15 22 32 47 50 59 69 72 76 80 87 100 95 98 99 99 90 86 83 79 68 77 78 70 86 81 99 95
27 29 35 29 30 28 25 28 23 20 25 22 21 19 19 18 19 17 16 18 16 17 18 31 45 52 60 68 74 76 83 92 99 99 95 99 100 100 99 93 84 74 75 81 64 74 72 98 87
29 26 35 33 29 27 28 26 21 23 24 23 23 22 19 18 18 16 16 18 16 15 18 24 45 56 62 71 75 72 88 83 100 99 97 96 97 99 100 99 86 78 76 83 73 61 81 87 86
27 31 37 31 27 29 28 29 24 24 25 24 24 23 21 19 16 16 16 17 17 14 17 25 43 55 65 76 74 75 89 75 99 100 100 99 100 99 100 98 95 82 82 82 72 68 95 79 80
22 31 32 31 29 30 30 29 26 25 25 25 24 23 21 14 14 15 17 17 18 18 18 24 42 57 69 74 71 78 86 89 98 98 99 99 99 100 100 100 95 95 85 78 70 78 92 82 78
25 25 24 23 27 28 27 27 22 22 23 22 22 20 18 15 14 15 19 18 18 23 25 27 47 59 73 72 62 62 88 99 98 92 97 98 98 94 99 100 98 89 95 93 73 70 96 79 75
25 27 25 24 25 30 33 26 17 13 19 19 21 20 20 25 24 21 20 19 18 23 31 32 46 61 68 67 58 64 99 99 98 94 99 92 97 99 100 99 100 89 97 87 76 71 90 77 77
26 22 24 26 32 29 25 20 18 16 15 23 22 32 42 48 36 24 20 19 18 26 42 50 59 67 70 65 49 67 98 99 96 92 93 95 94 100 100 100 99 100 94 94 91 71 87 73 75
29 23 25 26 30 30 23 26 19 23 23 22 42 49 56 63 47 30 26 21 21 23 34 51 70 71 70 63 50 72 100 99 98 98 97 98 98 100 100 99 100 100 100 95 96 86 83 82 73
22 23 24 28 28 32 23 23 22 19 19 43 48 54 60 58 46 42 29 26 26 32 41 63 76 75 71 60 58 77 97 100 99 97 96 98 100 99 100 100 100 100 100 99 99 94 67 75 79
24 26 34 41 43 38 29 28 20 23 33 45 53 58 64 62 52 52 49 49 48 50 57 74 85 78 74 64 78 82 94 91 94 96 97 100 100 100 100 100 100 100 100 100 96 91 55 58 80
30 29 35 37 42 32 31 34 25 23 26 52 60 62 62 64 70 65 59 65 73 70 79 83 89 81 74 74 85 90 90 93 96 100 100 100 100 100 100 100 100 100 99 100 88 47 38 57 71
40 39 27 38 49 47 40 34 34 39 52 54 61 62 66 74 88 89 67 76 83 95 97 98 92 87 75 79 79 91 98 98 97 99 100 100 100 100 100 100 100 99 98 92 44 37 53 66 72
32 31 45 41 44 48 40 45 31 53 61 59 64 64 67 80 92 97 94 92 98 98 97 100 100 92 71 81 74 93 98 98 95 87 99 100 100 100 100 100 100 99 91 51 35 41 43 58 70
22 36 35 34 40 35 35 34 41 43 53 62 65 65 69 78 91 99 98 98 99 98 100 100 100 100 77 96 79 88 98 98 96 93 100 100 100 100 100 100 90 87 82 84 52 50 56 55 50
25 23 31 39 44 40 34 34 60 61 60 60 69 66 68 64 80 91 97 100 100 100 100 100 98 100 98 89 79 78 99 100 98 97 98 100 100 100 100 100 99 91 91 80 83 66 60 63 69

GFSSGP_850_rhum_114.txt.gz
RH
26 14 19 22 14 11 8 10 12 12 13 13 13 17 13 12 13 13 16 39 19 17 17 16 18 17 17 22 39 52 60 58 56 65 74 74 66 64 56 61 88 85 77 63 70 72 74 75 76
29 15 22 17 11 8 7 8 13 11 13 15 15 15 13 11 15 21 28 20 20 17 17 17 18 18 18 27 42 54 60 56 57 66 74 77 69 68 69 63 70 88 57 81 77 74 78 76 76
22 22 15 10 9 8 6 10 11 12 15 13 13 13 12 11 17 18 22 17 18 17 17 17 18 18 21 29 43 55 60 56 61 68 76 80 78 80 72 88 74 75 63 69 73 74 77 73 78
22 19 15 12 9 8 8 9 12 13 13 13 12 12 12 18 20 25 21 19 18 17 17 18 18 21 24 30 43 56 60 58 63 76 81 80 80 83 79 81 75 71 68 68 67 66 71 80 83
22 16 11 11 8 6 10 13 16 13 13 13 12 12 12 16 16 14 17 20 20 19 18 20 21 23 27 32 44 59 62 59 61 70 79 86 86 80 83 74 93 74 69 60 66 71 82 82 84
14 14 12 8 7 8 9 9 12 12 12 12 13 12 12 21 22 24 20 20 22 22 20 22 26 28 29 32 42 59 61 62 67 76 74 83 77 57 56 61 81 67 52 47 56 67 82 76 76
15 12 10 8 7 10 9 10 12 11 12 12 13 13 13 22 21 16 20 22 24 25 24 24 29 33 36 36 38 57 63 67 66 75 77 80 76 64 71 83 71 59 43 47 57 58 72 75 76
17 13 13 10 10 8 8 11 11 12 11 14 15 12 14 26 14 13 21 26 26 29 30 28 30 35 37 39 40 51 65 70 69 71 74 74 70 67 73 77 57 40 40 34 35 70 53 76 81
22 16 14 11 10 8 11 10 13 14 13 13 14 15 18 26 14 22 25 28 33 34 35 32 33 35 37 44 41 47 66 78 75 74 75 73 78 78 77 67 48 58 49 41 46 48 64 77 80
18 17 14 9 9 9 10 10 10 13 12 12 13 16 17 22 29 34 44 54 52 50 39 37 37 38 36 40 46 44 84 87 92 88 83 84 89 94 93 63 65 68 48 46 50 62 70 82 91
20 20 14 12 12 11 10 10 10 11 10 11 12 13 15 17 22 29 30 38 47 66 61 39 39 39 37 38 42 45 75 76 83 88 92 96 99 100 79 89 69 66 56 74 71 69 82 85 97
24 18 18 15 15 16 14 12 13 12 10 11 12 15 16 17 17 21 24 28 38 54 76 44 42 40 36 37 43 42 45 67 88 91 93 95 98 99 100 93 97 61 75 73 75 77 86 95 99
24 20 17 19 18 17 17 16 15 14 12 13 14 17 17 16 16 19 22 26 34 49 64 47 42 40 38 38 46 49 49 67 92 93 91 97 94 95 98 96 96 90 83 87 85 95 96 94 100
17 19 19 19 18 17 17 17 16 15 16 17 16 17 15 16 16 16 19 28 35 36 41 53 40 44 40 41 47 53 57 64 97 95 92 91 94 91 97 98 98 89 85 92 94 86 94 94 100
19 21 18 17 18 18 18 20 19 17 17 16 16 17 17 16 16 17 18 21 29 36 43 46 41 48 44 45 50 58 62 68 77 99 90 91 85 89 92 96 100 100 88 93 91 88 90 99 99
22 20 25 17 18 19 18 22 16 18 18 19 20 20 19 18 17 17 18 19 22 25 38 61 67 49 45 48 52 60 65 72 78 87 90 89 90 90 88 94 98 92 90 90 88 87 97 91 88
17 20 16 16 19 19 22 21 15 18 17 16 18 18 18 18 18 18 18 19 21 24 33 62 65 41 44 54 54 62 69 72 77 93 97 91 91 93 90 99 97 91 95 93 87 85 90 89 82
16 16 16 17 12 16 20 20 17 18 18 18 18 18 18 18 18 17 17 19 28 18 26 64 73 47 50 57 59 68 76 73 70 98 100 96 97 99 98 100 99 94 99 94 82 84 91 88 86
13 13 14 12 12 21 19 18 16 14 16 18 19 19 18 19 18 17 17 24 18 20 24 57 78 72 51 58 63 69 70 61 83 94 92 94 96 100 99 96 98 99 100 92 85 89 92 89 89
14 15 14 11 10 16 17 15 12 11 13 16 17 17 15 14 15 15 17 31 17 21 26 63 76 91 61 62 65 69 65 60 69 86 90 98 98 98 100 100 99 100 100 98 96 94 94 88 90
15 15 13 14 12 12 15 17 14 11 11 11 12 12 12 13 14 19 21 26 41 23 33 64 78 93 70 78 73 78 92 65 80 87 94 95 99 99 100 100 99 96 100 94 85 93 95 91 92
17 11 14 16 17 19 13 18 10 13 12 11 11 13 17 22 29 29 26 24 36 40 49 46 87 95 94 95 81 85 90 83 86 94 92 91 93 94 97 100 100 100 94 99 89 92 93 91 89
17 12 17 20 20 20 17 19 12 10 11 13 13 22 32 38 42 42 38 30 33 62 52 39 63 89 92 97 98 91 89 91 96 99 97 86 95 95 100 100 100 100 98 98 96 100 97 87 82
15 20 19 18 19 26 18 18 13 10 14 13 30 36 44 44 47 48 52 46 47 74 46 48 69 95 83 86 96 92 77 62 93 98 88 92 92 95 99 93 100 100 99 100 96 97 94 83 85
15 22 22 25 27 23 12 18 15 11 19 22 34 43 45 47 54 52 54 58 60 85 69 68 99 99 80 82 75 72 60 65 99 97 98 95 90 92 100 98 99 100 100 99 98 100 93 89 87
17 20 20 22 21 19 18 24 16 12 15 36 43 46 48 53 61 62 67 73 80 90 88 96 100 97 85 82 73 62 60 92 98 100 99 90 93 95 96 99 100 100 100 100 100 100 96 91 88
16 21 14 14 14 22 16 19 13 17 14 37 42 46 52 60 68 73 79 86 92 100 100 98 98 100 93 92 95 89 72 96 100 100 96 98 95 94 99 100 100 100 100 100 100 100 100 99 91
13 14 20 15 24 22 13 16 19 24 31 39 44 46 56 66 76 90 90 97 99 98 98 98 98 100 96 98 96 94 91 99 99 91 93 98 99 95 99 100 100 100 100 100 100 100 100 100 96
21 26 19 14 18 18 20 18 16 28 34 42 44 49 56 66 72 85 100 98 99 99 99 100 100 100 100 100 83 91 87 100 92 94 89 98 98 99 100 100 99 100 100 100 100 99 88 85 62
14 22 21 26 23 20 19 18 34 30 34 41 46 49 54 62 70 79 92 99 98 99 99 99 100 100 100 94 87 84 98 99 90 89 90 99 98 99 100 100 100 100 99 99 84 47 37 30 45

GFSSGP_850_rhum_117.txt.gz
RH
16 14 23 14 13 9 6 6 5 8 9 9 9 12 10 10 13 17 20 30 30 38 15 15 16 18 16 16 23 38 54 60 62 61 67 72 68 63 62 64 72 77 75 76 70 70 67 68 71
36 26 16 13 13 8 7 4 7 7 10 11 11 15 10 10 10 17 25 32 30 39 15 15 17 18 17 17 22 35 50 57 55 58 67 76 72 70 70 77 80 79 73 62 60 66 73 72 70
32 20 12 10 10 8 5 4 6 7 11 12 11 12 10 10 11 15 22 26 29 37 28 15 18 18 18 18 23 34 49 51 51 60 73 80 80 84 98 90 90 80 68 75 64 66 76 75 71
26 15 14 13 10 6 5 4 6 8 10 10 10 11 10 13 13 15 21 25 28 38 46 17 18 18 20 21 23 33 47 50 51 60 79 86 92 96 78 68 91 99 75 71 71 68 75 72 73
17 12 11 9 7 5 4 5 8 10 9 11 10 11 10 13 17 20 21 27 35 41 51 20 18 20 22 25 26 32 48 51 54 66 74 91 90 76 67 82 78 95 90 69 66 64 70 75 77
13 11 12 10 7 5 4 6 9 11 9 10 10 10 10 14 18 26 26 34 44 54 48 18 20 22 24 25 30 38 50 55 56 67 82 88 76 59 53 61 69 59 83 69 60 51 62 80 84
14 10 11 9 8 6 5 6 6 9 9 9 11 10 10 17 28 40 33 39 54 67 33 19 21 24 26 25 26 41 51 60 64 72 81 80 78 64 56 60 55 70 75 64 53 55 72 76 80
14 12 12 10 10 8 5 6 7 7 8 10 10 11 10 26 32 36 40 47 58 75 56 28 23 26 27 25 24 36 51 63 69 73 80 72 67 70 69 62 68 72 64 56 55 57 77 76 71
16 18 16 12 10 8 6 7 7 6 7 10 10 12 16 22 28 32 44 52 61 74 82 82 52 28 28 28 24 27 46 66 71 73 81 78 78 78 74 77 85 62 50 53 57 56 60 80 76
17 19 16 10 8 8 7 7 7 8 9 9 11 13 15 16 21 23 32 44 57 66 78 80 87 72 36 29 26 26 34 56 69 75 81 86 91 87 77 95 79 57 55 66 64 65 66 75 84
18 21 14 12 11 9 8 8 8 7 9 8 10 12 13 13 14 19 20 27 42 54 69 78 89 92 74 32 29 29 37 88 97 99 95 91 96 87 95 89 81 60 70 77 69 69 76 85 92
19 17 16 15 14 12 12 12 11 9 8 7 8 10 12 13 14 15 17 18 23 37 63 77 81 92 71 41 34 73 58 94 97 97 91 90 92 87 91 91 91 66 70 74 74 78 86 92 81
16 15 16 16 16 16 15 13 14 13 11 10 9 9 11 13 13 14 15 16 19 24 42 70 80 90 62 43 58 68 75 94 95 97 88 87 93 94 97 91 92 82 78 76 74 94 89 92 91
16 16 16 17 18 16 17 16 15 14 14 13 12 12 11 12 13 13 14 16 19 25 37 58 78 86 92 44 38 57 48 49 46 56 77 84 85 86 96 90 91 91 88 79 78 74 83 85 96
15 18 16 15 16 16 16 18 17 16 15 14 13 13 13 10 10 11 12 14 15 23 32 51 71 84 93 55 45 43 73 78 52 54 68 84 84 90 91 95 89 95 93 82 82 89 91 84 90
13 17 23 16 15 15 16 22 15 14 14 14 15 15 14 13 12 11 12 14 14 16 27 41 56 79 91 95 88 84 55 69 69 62 67 85 83 85 93 99 96 94 91 92 90 93 92 89 89
11 12 13 14 10 14 17 21 14 14 13 14 15 16 16 16 15 14 13 14 14 16 20 27 54 72 89 95 95 96 82 69 88 73 67 73 83 87 92 96 97 96 94 92 91 93 90 91 82
11 12 10 12 10 10 16 17 14 14 14 16 15 14 15 15 15 15 15 15 15 17 20 28 41 69 86 97 98 97 98 63 68 72 67 64 82 87 83 98 94 97 96 96 89 90 90 85 80
9 10 11 12 9 11 12 12 11 12 12 13 15 15 16 16 16 16 16 16 16 18 31 38 45 70 88 97 98 96 79 67 73 73 68 60 79 88 87 90 92 95 99 95 88 92 92 87 75
6 9 12 8 7 8 9 12 14 12 10 11 12 13 15 16 16 16 17 17 18 22 42 45 51 69 87 99 100 96 96 81 95 94 82 58 65 86 87 88 93 92 100 99 95 93 93 82 79
9 8 9 9 8 8 10 11 10 9 9 8 8 9 12 13 14 13 13 15 18 32 44 51 54 66 84 100 99 100 100 99 96 85 69 92 79 85 87 89 96 98 99 95 99 96 88 82 84
13 8 9 8 10 12 10 14 9 8 8 8 8 9 10 10 10 11 13 17 20 27 46 55 56 65 87 98 99 92 96 95 88 91 76 93 92 87 87 96 91 98 99 100 98 99 84 80 85
9 8 11 10 12 14 11 10 8 8 9 9 9 9 10 15 20 23 23 22 22 22 48 65 62 66 89 97 93 96 83 92 89 89 94 99 92 90 86 93 98 96 100 98 98 99 93 88 85
13 11 12 14 14 23 15 12 9 8 9 10 12 14 19 27 30 30 31 39 30 39 65 86 75 71 88 91 91 93 86 81 78 87 91 99 96 89 97 98 96 96 100 100 97 92 93 94 88
16 18 20 28 26 25 12 12 11 8 7 8 17 25 31 34 36 37 38 41 37 54 82 99 97 84 98 99 91 92 89 86 87 88 91 99 100 96 95 98 98 100 98 99 100 99 99 94 88
18 18 22 30 26 19 9 12 9 7 7 12 21 29 34 36 43 45 50 54 58 69 84 100 100 100 97 100 97 96 95 93 92 94 89 96 93 92 87 90 93 100 100 100 100 100 100 97 95
17 19 13 20 15 17 11 9 9 8 10 22 28 31 36 42 48 53 63 72 76 84 93 98 98 100 98 99 99 98 99 94 94 95 94 99 96 87 87 90 90 97 98 100 100 100 99 100 99
16 12 20 19 28 24 12 12 12 12 14 22 26 31 41 51 60 71 76 86 92 98 98 98 98 100 99 98 99 100 100 97 96 93 99 98 86 97 90 91 99 100 100 100 100 100 100 100 100
17 17 12 15 18 22 18 13 9 10 12 17 24 34 43 50 58 72 91 100 98 99 99 98 98 100 98 100 99 97 96 99 100 99 97 91 83 91 88 98 98 99 100 100 100 100 100 100 99
36 14 13 19 21 15 14 14 16 12 17 19 35 37 46 53 59 67 84 98 97 98 100 99 99 99 99 100 100 97 99 100 100 97 96 91 91 95 98 99 99 100 100 100 100 100 100 100 99

GFSSGP_850_rhum_123.txt.gz
RH
7 12 12 26 33 29 27 19 13 11 8 9 10 12 14 16 26 43 34 28 29 22 14 13 12 11 12 17 20 27 42 52 59 64 68 70 70 67 72 73 75 68 68 67 71 69 72 70 67
11 27 31 25 26 28 24 14 14 10 10 9 9 11 13 21 28 38 32 32 27 16 13 12 10 11 12 15 20 26 41 50 58 61 67 77 76 71 70 72 68 70 87 82 75 73 72 67 69
16 36 38 29 27 28 24 13 12 10 10 10 10 10 12 16 26 29 24 24 20 14 12 11 13 13 14 14 17 24 39 48 53 59 69 70 72 71 69 70 59 63 73 83 80 71 69 69 69
24 33 33 22 25 19 14 10 9 9 10 10 10 12 11 17 24 26 26 22 15 13 12 14 17 18 16 16 16 22 33 42 46 51 59 63 68 73 63 73 60 55 74 82 84 71 71 73 72
28 33 27 25 21 15 11 9 7 8 11 10 9 12 11 13 19 24 27 26 16 12 12 15 18 19 19 18 17 20 26 38 45 49 51 61 70 75 52 65 60 60 63 74 72 73 74 72 74
35 25 31 30 20 14 11 9 8 8 10 10 10 10 12 16 20 22 24 28 15 14 13 15 17 19 20 20 19 20 24 31 44 48 53 66 77 63 54 64 62 57 64 69 70 80 76 77 82
44 36 31 24 20 15 12 8 8 6 10 10 9 12 10 21 21 22 22 24 23 28 19 16 18 18 20 22 20 22 20 26 38 49 55 65 78 65 58 59 58 61 64 69 65 79 77 79 84
26 29 30 26 23 21 13 11 9 6 7 6 7 12 15 20 21 23 24 26 26 30 28 23 20 18 21 23 23 26 26 25 31 47 58 62 71 68 66 64 60 62 67 67 65 76 68 78 82
25 35 34 30 24 19 13 14 12 8 6 6 6 10 24 23 23 29 28 32 30 31 29 26 21 18 20 23 25 25 28 28 29 39 58 63 65 71 66 63 70 64 68 66 56 60 64 75 81
25 37 32 24 20 19 15 16 17 15 8 7 6 21 24 24 26 34 40 43 44 39 27 23 22 21 20 23 26 25 25 24 25 30 44 61 69 69 72 66 68 62 80 70 67 59 72 72 78
22 30 26 22 20 19 19 18 17 17 12 8 8 9 19 19 22 29 37 42 43 38 34 22 22 26 24 23 25 27 25 25 27 37 41 53 70 77 80 75 68 75 80 74 66 65 68 74 74
22 17 19 19 18 18 19 17 18 17 17 15 11 10 10 15 16 22 30 35 44 41 26 19 19 26 30 28 24 27 26 26 29 34 41 46 65 80 76 78 73 75 73 61 64 64 63 73 76
15 16 15 15 15 15 15 16 18 17 16 16 15 14 13 10 12 15 20 30 34 42 34 26 28 20 26 39 30 30 28 28 32 38 47 50 63 74 80 79 78 76 68 57 60 65 63 70 74
13 13 12 12 12 12 16 17 17 17 16 16 15 15 15 14 12 13 14 16 29 38 38 36 31 32 22 24 40 34 34 33 38 59 64 69 70 76 79 86 84 84 74 61 57 66 61 66 74
13 16 14 13 16 14 12 16 19 16 16 17 17 16 16 15 14 12 11 13 14 16 38 43 41 39 35 30 35 52 37 54 55 57 83 79 78 80 74 85 88 84 81 75 62 68 66 68 77
20 15 20 12 12 10 13 21 15 14 16 16 16 17 16 15 15 13 13 11 11 13 16 31 37 42 37 35 35 48 57 65 90 69 67 76 82 81 76 83 87 82 86 82 77 73 74 77 81
20 23 18 14 10 10 10 10 8 13 15 16 16 16 16 15 15 14 13 12 11 12 14 19 28 31 39 40 45 42 62 74 94 92 73 66 80 83 80 84 87 91 89 85 82 79 76 78 84
26 21 15 15 10 11 11 11 10 10 11 15 16 16 16 15 16 16 14 13 12 11 11 14 23 28 38 38 46 62 70 74 74 86 83 65 73 86 89 89 89 90 88 86 85 81 80 78 81
19 20 18 14 10 10 10 9 8 8 11 11 14 14 15 15 15 15 14 14 13 12 11 13 21 34 41 47 46 67 61 81 79 81 93 80 82 96 84 86 92 96 94 86 85 88 84 84 87
22 23 22 16 12 11 10 10 7 8 9 9 10 10 12 12 14 15 16 15 15 14 12 14 16 30 37 39 42 49 48 69 76 86 98 99 92 99 90 81 88 96 98 94 91 89 87 86 90
27 27 26 24 18 15 13 12 9 8 10 8 8 8 8 11 11 12 14 17 16 16 15 15 18 29 34 45 55 71 81 92 95 90 99 98 97 100 98 85 88 95 95 92 96 94 88 85 95
27 24 27 29 34 30 16 20 11 10 11 9 8 8 8 8 8 8 10 14 16 17 17 20 21 31 37 44 57 61 58 82 96 90 98 96 98 98 98 98 92 95 97 96 96 96 92 87 89
35 31 34 37 43 34 25 21 13 10 10 9 8 7 8 8 8 8 8 13 14 15 17 19 20 26 36 47 49 56 69 84 90 85 96 97 96 98 99 98 99 99 98 96 98 98 99 92 87
28 43 43 39 42 50 29 28 16 13 9 8 7 7 8 7 8 8 11 12 16 16 18 26 26 26 38 47 52 65 71 88 83 89 92 98 100 98 98 100 98 97 100 99 100 100 100 94 95
36 67 85 69 56 48 25 28 20 14 9 8 9 9 25 14 13 28 32 37 41 35 35 35 41 50 52 54 53 66 75 88 88 86 87 95 100 99 97 99 99 98 99 100 100 100 98 99 99
44 49 76 94 63 47 23 31 19 12 10 8 8 30 37 42 48 53 56 66 69 65 60 56 60 74 73 67 60 70 82 86 90 83 80 87 93 92 98 100 100 99 100 100 100 100 100 96 96
90 93 64 91 66 60 34 26 17 10 10 10 11 31 43 65 73 72 72 73 76 72 70 69 65 68 80 83 93 90 80 84 91 95 89 81 85 91 89 91 90 96 91 96 100 100 99 100 96
56 71 88 64 66 56 42 35 27 19 16 11 20 45 73 75 82 80 83 79 78 75 75 79 75 80 94 99 98 94 91 88 94 97 93 87 86 91 88 92 94 94 96 97 100 100 100 100 100
61 83 92 93 56 50 50 37 18 21 19 28 29 62 86 92 76 54 51 79 96 96 94 90 89 91 87 89 92 95 97 95 99 97 92 90 87 90 96 94 100 99 99 99 100 100 100 100 99
46 50 79 96 91 69 39 32 13 15 44 49 46 83 93 96 97 95 96 98 96 99 90 90 86 90 93 92 88 90 100 100 100 94 92 89 88 91 92 96 91 94 95 99 100 99 100 100 98